,,Stat5,,Stat1,,Stat2,,Stat3,,Stat4,,Wind1,,Wind1,
time,status,PA1M_AVG,status,PR1M_SUM,status,RH1M_AVG,status,SR1M_AVG,status,TA1M_AVG,status,W1dAve1m,status,W1sAve1m,
2000-06-27, 00:00:00,VALID,917.398,VALID,0,VALID,94.1712,VALID,0,VALID,19.4701,VALID,119,VALID,0,
2000-06-27, 00:01:00,VALID,917.385,VALID,0,VALID,93.8749,VALID,-0.0169808,VALID,19.4736,VALID,119,VALID,0,
2000-06-27, 00:02:00,VALID,917.354,VALID,0,VALID,93.8381,VALID,-0.0169808,VALID,19.4865,VALID,119,VALID,0,
2000-06-27, 00:03:00,VALID,917.326,VALID,0,VALID,93.9309,VALID,0,VALID,19.4833,VALID,150,VALID,0,
2000-06-27, 00:04:00,VALID,917.308,VALID,0,VALID,93.8889,VALID,0,VALID,19.4833,VALID,175,VALID,0,
2000-06-27, 00:05:00,VALID,917.28,VALID,0,VALID,93.7834,VALID,0.0169808,VALID,19.4803,VALID,179,VALID,0,
2000-06-27, 00:06:00,VALID,917.239,VALID,0,VALID,93.6855,VALID,0,VALID,19.4709,VALID,177,VALID,0,
2000-06-27, 00:07:00,VALID,917.221,VALID,0,VALID,93.9436,VALID,0,VALID,19.4418,VALID,178,VALID,0,
2000-06-27, 00:08:00,VALID,917.183,VALID,0,VALID,94.072,VALID,0,VALID,19.4162,VALID,210,VALID,0,
2000-06-27, 00:09:00,VALID,917.164,VALID,0,VALID,94.2882,VALID,0,VALID,19.3832,VALID,212,VALID,0,
2000-06-27, 00:10:00,VALID,917.157,VALID,0,VALID,94.4802,VALID,0.0509425,VALID,19.3794,VALID,212,VALID,0,
2000-06-27, 00:11:00,VALID,917.147,VALID,0,VALID,94.4853,VALID,0.101885,VALID,19.3723,VALID,212,VALID,0,
2000-06-27, 00:12:00,VALID,917.126,VALID,0,VALID,94.4739,VALID,0.101885,VALID,19.375,VALID,212,VALID,0,
2000-06-27, 00:13:00,VALID,917.116,VALID,0,VALID,94.4383,VALID,0.101885,VALID,19.3688,VALID,212,VALID,0,
2000-06-27, 00:14:00,VALID,917.114,VALID,0,VALID,94.4993,VALID,0.118866,VALID,19.3656,VALID,212,VALID,0,
2000-06-27, 00:15:00,VALID,917.098,VALID,0,VALID,94.4955,VALID,0.101885,VALID,19.3725,VALID,208,VALID,0,
2000-06-27, 00:16:00,VALID,917.082,VALID,0,VALID,94.3874,VALID,0.118866,VALID,19.3499,VALID,198,VALID,0,
2000-06-27, 00:17:00,VALID,917.058,VALID,0,VALID,94.6989,VALID,0.101885,VALID,19.3367,VALID,198,VALID,0,
2000-06-27, 00:18:00,VALID,917.037,VALID,0,VALID,94.6455,VALID,0.101885,VALID,19.3333,VALID,198,VALID,0,
2000-06-27, 00:19:00,VALID,916.996,VALID,0,VALID,94.7231,VALID,0.101885,VALID,19.3402,VALID,183,VALID,0,
2000-06-27, 00:20:00,VALID,916.958,VALID,0,VALID,94.6239,VALID,0.101885,VALID,19.3526,VALID,169,VALID,0,
2000-06-27, 00:21:00,VALID,916.931,VALID,0,VALID,94.4611,VALID,0.101885,VALID,19.4085,VALID,160,VALID,0,
2000-06-27, 00:22:00,VALID,916.9,VALID,0,VALID,94.203,VALID,0.0849042,VALID,19.4403,VALID,160,VALID,0,
2000-06-27, 00:23:00,VALID,916.897,VALID,0,VALID,93.9423,VALID,0.101885,VALID,19.4793,VALID,157,VALID,0,
2000-06-27, 00:24:00,VALID,916.861,VALID,0,VALID,93.5329,VALID,0.118866,VALID,19.4855,VALID,145,VALID,0,
2000-06-27, 00:25:00,VALID,916.824,VALID,0,VALID,93.5456,VALID,0.0339617,VALID,19.4639,VALID,102,VALID,0,
2000-06-27, 00:26:00,VALID,916.777,VALID,0,VALID,93.5291,VALID,-0.101885,VALID,19.4587,VALID,98,VALID,0,
2000-06-27, 00:27:00,VALID,916.728,VALID,0,VALID,93.4629,VALID,-0.0849042,VALID,19.4525,VALID,98,VALID,0,
2000-06-27, 00:28:00,VALID,916.689,VALID,0,VALID,93.5596,VALID,-0.101885,VALID,19.4557,VALID,98,VALID,0,
2000-06-27, 00:29:00,VALID,916.662,VALID,0,VALID,93.7567,VALID,-0.118866,VALID,19.4589,VALID,95,VALID,0,
2000-06-27, 00:30:00,VALID,916.627,VALID,0,VALID,93.641,VALID,-0.101885,VALID,19.4786,VALID,86,VALID,0,
2000-06-27, 00:31:00,VALID,916.601,VALID,0,VALID,93.3625,VALID,-0.101885,VALID,19.4594,VALID,74,VALID,0,
2000-06-27, 00:32:00,VALID,916.589,VALID,0,VALID,93.8826,VALID,-0.101885,VALID,19.4433,VALID,59,VALID,0,
2000-06-27, 00:33:00,VALID,916.553,VALID,0,VALID,93.9881,VALID,-0.152827,VALID,19.4559,VALID,64,VALID,0,
2000-06-27, 00:34:00,VALID,916.537,VALID,0,VALID,93.4324,VALID,-0.101885,VALID,19.4594,VALID,108,VALID,0,
2000-06-27, 00:35:00,VALID,916.511,VALID,0,VALID,92.7839,VALID,-0.118866,VALID,19.3978,VALID,108,VALID,0,
2000-06-27, 00:36:00,VALID,916.489,VALID,0,VALID,93.1552,VALID,-0.118866,VALID,19.3625,VALID,108,VALID,0,
2000-06-27, 00:37:00,VALID,916.476,VALID,0,VALID,93.6079,VALID,-0.118866,VALID,19.3168,VALID,108,VALID,0,
2000-06-27, 00:38:00,VALID,916.464,VALID,0,VALID,93.8342,VALID,-0.101885,VALID,19.3208,VALID,99,VALID,0,
2000-06-27, 00:39:00,VALID,916.448,VALID,0,VALID,93.6181,VALID,-0.101885,VALID,19.288,VALID,106,VALID,0,
2000-06-27, 00:40:00,VALID,916.441,VALID,0,VALID,94.0682,VALID,-0.101885,VALID,19.2654,VALID,110,VALID,0,
2000-06-27, 00:41:00,VALID,916.417,VALID,0,VALID,94.2551,VALID,-0.101885,VALID,19.2587,VALID,111,VALID,0,
2000-06-27, 00:42:00,VALID,916.405,VALID,0,VALID,94.1699,VALID,-0.101885,VALID,19.2584,VALID,111,VALID,0,
2000-06-27, 00:43:00,VALID,916.381,VALID,0,VALID,94.0733,VALID,-0.101885,VALID,19.246,VALID,111,VALID,0,
2000-06-27, 00:44:00,VALID,916.356,VALID,0,VALID,93.7808,VALID,-0.0849042,VALID,19.2104,VALID,114,VALID,0,
2000-06-27, 00:45:00,VALID,916.324,VALID,0,VALID,93.9385,VALID,-0.0849042,VALID,19.2174,VALID,114,VALID,0,
2000-06-27, 00:46:00,VALID,916.307,VALID,0,VALID,94.5273,VALID,-0.118866,VALID,19.2301,VALID,114,VALID,0,
2000-06-27, 00:47:00,VALID,916.299,VALID,0,VALID,93.9843,VALID,-0.101885,VALID,19.2234,VALID,114,VALID,0,
2000-06-27, 00:48:00,VALID,916.297,VALID,0,VALID,93.6944,VALID,-0.101885,VALID,19.2174,VALID,114,VALID,0,
2000-06-27, 00:49:00,VALID,916.271,VALID,0,VALID,93.9029,VALID,-0.101885,VALID,19.1918,VALID,114,VALID,0,
2000-06-27, 00:50:00,VALID,916.258,VALID,0,VALID,93.5952,VALID,-0.118866,VALID,19.1525,VALID,114,VALID,0,
2000-06-27, 00:51:00,VALID,916.252,VALID,0,VALID,93.5392,VALID,-0.118866,VALID,19.1267,VALID,114,VALID,0,
2000-06-27, 00:52:00,VALID,916.233,VALID,0,VALID,93.5787,VALID,-0.101885,VALID,19.075,VALID,114,VALID,0,
2000-06-27, 00:53:00,VALID,916.215,VALID,0,VALID,92.8284,VALID,-0.118866,VALID,18.9719,VALID,124,VALID,0,
2000-06-27, 00:54:00,VALID,916.212,VALID,0,VALID,93.4337,VALID,-0.101885,VALID,18.8845,VALID,128,VALID,0,
2000-06-27, 00:55:00,VALID,916.199,VALID,0,VALID,94.3696,VALID,-0.0679233,VALID,18.8551,VALID,128,VALID,0,
2000-06-27, 00:56:00,VALID,916.18,VALID,0,VALID,94.9113,VALID,0,VALID,18.8611,VALID,128,VALID,0,
2000-06-27, 00:57:00,VALID,916.18,VALID,0,VALID,95.2712,VALID,0,VALID,18.857,VALID,128,VALID,0,
2000-06-27, 00:58:00,VALID,916.163,VALID,0,VALID,95.453,VALID,0,VALID,18.8897,VALID,89,VALID,0,
2000-06-27, 00:59:00,VALID,916.141,VALID,0,VALID,96.0824,VALID,-0.0339617,VALID,18.9774,VALID,307,VALID,0,
2000-06-27, 01:00:00,VALID,916.121,VALID,0,VALID,96.1715,VALID,-0.0169808,VALID,19.0221,VALID,307,VALID,0,
2000-06-27, 01:01:00,VALID,916.095,VALID,0,VALID,95.9209,VALID,0,VALID,19.0512,VALID,300,VALID,0,
2000-06-27, 01:02:00,VALID,916.084,VALID,0,VALID,95.4339,VALID,0,VALID,19.0381,VALID,291,VALID,0,
2000-06-27, 01:03:00,VALID,916.072,VALID,0,VALID,94.9939,VALID,0,VALID,19.0092,VALID,291,VALID,0,
2000-06-27, 01:04:00,VALID,916.079,VALID,0,VALID,94.8388,VALID,0,VALID,18.9802,VALID,291,VALID,0,
2000-06-27, 01:05:00,VALID,916.078,VALID,0,VALID,94.8096,VALID,0,VALID,18.9774,VALID,291,VALID,0,
2000-06-27, 01:06:00,VALID,916.066,VALID,0,VALID,94.4344,VALID,0,VALID,18.9543,VALID,291,VALID,0,
2000-06-27, 01:07:00,VALID,916.07,VALID,0,VALID,94.4459,VALID,0.0169808,VALID,18.9352,VALID,291,VALID,0,
2000-06-27, 01:08:00,VALID,916.074,VALID,0,VALID,93.908,VALID,-0.0169808,VALID,18.9026,VALID,291,VALID,0,
2000-06-27, 01:09:00,VALID,916.084,VALID,0,VALID,94.0657,VALID,0,VALID,18.8863,VALID,291,VALID,0,
2000-06-27, 01:10:00,VALID,916.083,VALID,0,VALID,94.3747,VALID,-0.0169808,VALID,18.8964,VALID,291,VALID,0,
2000-06-27, 01:11:00,VALID,916.081,VALID,0,VALID,93.6282,VALID,0,VALID,18.8706,VALID,291,VALID,0,
2000-06-27, 01:12:00,VALID,916.086,VALID,0,VALID,93.2722,VALID,0,VALID,18.8291,VALID,291,VALID,0,
2000-06-27, 01:13:00,VALID,916.088,VALID,0,VALID,94.0237,VALID,0,VALID,18.8,VALID,291,VALID,0,
2000-06-27, 01:14:00,VALID,916.061,VALID,0,VALID,95.7595,VALID,0,VALID,18.8574,VALID,291,VALID,0,
2000-06-27, 01:15:00,VALID,916.068,VALID,0,VALID,95.9731,VALID,0,VALID,18.8676,VALID,216,VALID,0,
2000-06-27, 01:16:00,VALID,916.069,VALID,0,VALID,96.0926,VALID,0.0169808,VALID,18.8837,VALID,126,VALID,0,
2000-06-27, 01:17:00,VALID,916.058,VALID,0,VALID,95.8269,VALID,0,VALID,18.8768,VALID,126,VALID,0,
2000-06-27, 01:18:00,VALID,916.069,VALID,0,VALID,95.8167,VALID,0.0169808,VALID,18.88,VALID,126,VALID,0,
2000-06-27, 01:19:00,VALID,916.089,VALID,0,VALID,95.8485,VALID,0,VALID,18.8999,VALID,126,VALID,0,
2000-06-27, 01:20:00,VALID,916.09,VALID,0,VALID,95.9527,VALID,0,VALID,18.9195,VALID,126,VALID,0,
2000-06-27, 01:21:00,VALID,916.095,VALID,0,VALID,94.9215,VALID,0,VALID,18.8775,VALID,126,VALID,0,
2000-06-27, 01:22:00,VALID,916.083,VALID,0,VALID,94.8363,VALID,0,VALID,18.8616,VALID,125,VALID,0,
2000-06-27, 01:23:00,VALID,916.074,VALID,0,VALID,95.5573,VALID,0.0339617,VALID,18.8706,VALID,126,VALID,0,
2000-06-27, 01:24:00,VALID,916.082,VALID,0,VALID,96.0405,VALID,0,VALID,18.89,VALID,126,VALID,0,
2000-06-27, 01:25:00,VALID,916.07,VALID,0,VALID,96.1867,VALID,-0.0169808,VALID,18.9389,VALID,126,VALID,0,
2000-06-27, 01:26:00,VALID,916.085,VALID,0,VALID,96.1689,VALID,-0.0169808,VALID,18.9451,VALID,126,VALID,0,
2000-06-27, 01:27:00,VALID,916.075,VALID,0,VALID,95.0639,VALID,0,VALID,18.8803,VALID,126,VALID,0,
2000-06-27, 01:28:00,VALID,916.067,VALID,0,VALID,94.6595,VALID,0,VALID,18.8258,VALID,126,VALID,0,
2000-06-27, 01:29:00,VALID,916.038,VALID,0,VALID,95.5026,VALID,0,VALID,18.8127,VALID,124,VALID,0,
2000-06-27, 01:30:00,VALID,916.014,VALID,0,VALID,96.2681,VALID,-0.0169808,VALID,18.8457,VALID,124,VALID,0,
2000-06-27, 01:31:00,VALID,916.001,VALID,0,VALID,96.1435,VALID,0,VALID,18.8226,VALID,121,VALID,0,
2000-06-27, 01:32:00,VALID,915.995,VALID,0,VALID,96.1943,VALID,-0.0169808,VALID,18.8097,VALID,91,VALID,0,
2000-06-27, 01:33:00,VALID,915.989,VALID,0,VALID,97.0552,VALID,0,VALID,18.8713,VALID,91,VALID,0,
2000-06-27, 01:34:00,VALID,915.978,VALID,0,VALID,96.6241,VALID,-0.0169808,VALID,18.8293,VALID,91,VALID,0,
2000-06-27, 01:35:00,VALID,915.966,VALID,0,VALID,97.0209,VALID,-0.0169808,VALID,18.8485,VALID,91,VALID,0,
2000-06-27, 01:36:00,VALID,915.971,VALID,0,VALID,97.1531,VALID,-0.0169808,VALID,18.8581,VALID,91,VALID,0,
2000-06-27, 01:37:00,VALID,915.965,VALID,0,VALID,96.7399,VALID,-0.0339617,VALID,18.8392,VALID,103,VALID,0,
2000-06-27, 01:38:00,VALID,915.975,VALID,0,VALID,96.5885,VALID,-0.0169808,VALID,18.8129,VALID,115,VALID,0,
2000-06-27, 01:39:00,VALID,915.968,VALID,0,VALID,96.8441,VALID,-0.0169808,VALID,18.8291,VALID,120,VALID,0,
2000-06-27, 01:40:00,VALID,915.977,VALID,0,VALID,97.1213,VALID,0,VALID,18.8745,VALID,124,VALID,0,
2000-06-27, 01:41:00,VALID,915.991,VALID,0,VALID,97.1862,VALID,0,VALID,18.9197,VALID,134,VALID,0,
2000-06-27, 01:42:00,VALID,915.995,VALID,0,VALID,97.101,VALID,-0.0339617,VALID,18.9354,VALID,139,VALID,0,
2000-06-27, 01:43:00,VALID,915.999,VALID,0,VALID,96.9764,VALID,-0.0169808,VALID,18.9645,VALID,139,VALID,0,
2000-06-27, 01:44:00,VALID,915.992,VALID,0,VALID,96.6877,VALID,0,VALID,18.9486,VALID,139,VALID,0,
2000-06-27, 01:45:00,VALID,916.013,VALID,0,VALID,96.441,VALID,0,VALID,18.9523,VALID,139,VALID,0,
2000-06-27, 01:46:00,VALID,916.005,VALID,0,VALID,96.2554,VALID,-0.0169808,VALID,18.9357,VALID,139,VALID,0,
2000-06-27, 01:47:00,VALID,916.007,VALID,0,VALID,96.3482,VALID,0,VALID,18.9456,VALID,139,VALID,0,
2000-06-27, 01:48:00,VALID,916.006,VALID,0,VALID,96.6076,VALID,-0.0169808,VALID,18.9615,VALID,149,VALID,0,
2000-06-27, 01:49:00,VALID,915.999,VALID,0,VALID,96.6051,VALID,-0.0339617,VALID,18.9714,VALID,161,VALID,0.410156,
2000-06-27, 01:50:00,VALID,915.981,VALID,0,VALID,96.2694,VALID,-0.0169808,VALID,18.9684,VALID,147,VALID,0.348011,
2000-06-27, 01:51:00,VALID,915.969,VALID,0,VALID,95.8955,VALID,-0.0509425,VALID,18.9652,VALID,147,VALID,0.14926,
2000-06-27, 01:52:00,VALID,915.968,VALID,0,VALID,95.6425,VALID,0,VALID,18.9518,VALID,147,VALID,0,
2000-06-27, 01:53:00,VALID,915.974,VALID,0,VALID,95.5242,VALID,0,VALID,18.9553,VALID,147,VALID,0.00413603,
2000-06-27, 01:54:00,VALID,915.957,VALID,0,VALID,95.9375,VALID,-0.0339617,VALID,18.9555,VALID,147,VALID,0.00675676,
2000-06-27, 01:55:00,VALID,915.946,VALID,0,VALID,96.1397,VALID,-0.0169808,VALID,18.9451,VALID,147,VALID,0,
2000-06-27, 01:56:00,VALID,915.938,VALID,0,VALID,96.1435,VALID,-0.0339617,VALID,18.9458,VALID,158,VALID,0,
2000-06-27, 01:57:00,VALID,915.921,VALID,0,VALID,96.1384,VALID,0,VALID,18.9066,VALID,170,VALID,0.183811,
2000-06-27, 01:58:00,VALID,915.914,VALID,0,VALID,96.1206,VALID,-0.0169808,VALID,18.8979,VALID,171,VALID,0.351345,
2000-06-27, 01:59:00,VALID,915.906,VALID,0,VALID,96.38,VALID,-0.0169808,VALID,18.8713,VALID,172,VALID,0.276752,
2000-06-27, 02:00:00,VALID,915.902,VALID,0,VALID,96.366,VALID,-0.0169808,VALID,18.8618,VALID,172,VALID,0,
2000-06-27, 02:01:00,VALID,915.914,VALID,0,VALID,96.249,VALID,-0.0169808,VALID,18.8519,VALID,172,VALID,0,
2000-06-27, 02:02:00,VALID,915.899,VALID,0,VALID,96.2745,VALID,-0.0339617,VALID,18.8551,VALID,173,VALID,0,
2000-06-27, 02:03:00,VALID,915.894,VALID,0,VALID,96.4067,VALID,0,VALID,18.8485,VALID,174,VALID,0,
2000-06-27, 02:04:00,VALID,915.878,VALID,0,VALID,96.4538,VALID,-0.0169808,VALID,18.8383,VALID,188,VALID,0,
2000-06-27, 02:05:00,VALID,915.845,VALID,0,VALID,96.7221,VALID,0,VALID,18.8519,VALID,175,VALID,0.179443,
2000-06-27, 02:06:00,VALID,915.82,VALID,0,VALID,96.5657,VALID,-0.0169808,VALID,18.8522,VALID,180,VALID,0.410373,
2000-06-27, 02:07:00,VALID,915.806,VALID,0,VALID,96.3965,VALID,-0.0169808,VALID,18.8231,VALID,184,VALID,0.0143229,
2000-06-27, 02:08:00,VALID,915.8,VALID,0,VALID,96.5059,VALID,0,VALID,18.8162,VALID,221,VALID,0,
2000-06-27, 02:09:00,VALID,915.784,VALID,0,VALID,96.614,VALID,0,VALID,18.8164,VALID,206,VALID,0,
2000-06-27, 02:10:00,VALID,915.778,VALID,0,VALID,96.5326,VALID,0,VALID,18.7873,VALID,196,VALID,0,
2000-06-27, 02:11:00,VALID,915.793,VALID,0,VALID,96.4792,VALID,0,VALID,18.7647,VALID,200,VALID,0,
2000-06-27, 02:12:00,VALID,915.821,VALID,0,VALID,96.3889,VALID,-0.0339617,VALID,18.7356,VALID,201,VALID,0,
2000-06-27, 02:13:00,VALID,915.846,VALID,0,VALID,96.5453,VALID,-0.0169808,VALID,18.7426,VALID,201,VALID,0,
2000-06-27, 02:14:00,VALID,915.856,VALID,0,VALID,96.6356,VALID,-0.0169808,VALID,18.759,VALID,201,VALID,0,
2000-06-27, 02:15:00,VALID,915.857,VALID,0,VALID,96.202,VALID,-0.0169808,VALID,18.7329,VALID,155,VALID,0.363064,
2000-06-27, 02:16:00,VALID,915.837,VALID,0,VALID,95.7633,VALID,0,VALID,18.684,VALID,128,VALID,0.931858,
2000-06-27, 02:17:00,VALID,915.823,VALID,0,VALID,96.221,VALID,0,VALID,18.7004,VALID,125,VALID,0.84375,
2000-06-27, 02:18:00,VALID,915.824,VALID,0,VALID,96.4766,VALID,0,VALID,18.7292,VALID,132,VALID,0.260691,
2000-06-27, 02:19:00,VALID,915.819,VALID,0,VALID,96.0557,VALID,0,VALID,18.7269,VALID,130,VALID,0.123214,
2000-06-27, 02:20:00,VALID,915.806,VALID,0,VALID,96.0443,VALID,0,VALID,18.7123,VALID,130,VALID,0.015625,
2000-06-27, 02:21:00,VALID,915.81,VALID,0,VALID,96.0316,VALID,0,VALID,18.7391,VALID,130,VALID,0,
2000-06-27, 02:22:00,VALID,915.798,VALID,0,VALID,96.1715,VALID,0,VALID,18.7645,VALID,127,VALID,0,
2000-06-27, 02:23:00,VALID,915.806,VALID,0,VALID,96.7373,VALID,0,VALID,18.8325,VALID,105,VALID,0.15625,
2000-06-27, 02:24:00,VALID,915.803,VALID,0,VALID,96.8492,VALID,0,VALID,18.8904,VALID,109,VALID,0.407986,
2000-06-27, 02:25:00,VALID,915.811,VALID,0,VALID,96.5847,VALID,0,VALID,18.9294,VALID,96,VALID,0.0243056,
2000-06-27, 02:26:00,VALID,915.833,VALID,0,VALID,96.4639,VALID,-0.0509425,VALID,18.9714,VALID,76,VALID,0,
2000-06-27, 02:27:00,VALID,915.847,VALID,0,VALID,96.3215,VALID,-0.0509425,VALID,19.0074,VALID,95,VALID,0,
2000-06-27, 02:28:00,VALID,915.854,VALID,0,VALID,96.0138,VALID,0,VALID,19.0266,VALID,98,VALID,0,
2000-06-27, 02:29:00,VALID,915.854,VALID,0,VALID,95.5891,VALID,0,VALID,19.0298,VALID,106,VALID,0,
2000-06-27, 02:30:00,VALID,915.852,VALID,0,VALID,95.8536,VALID,0,VALID,19.0492,VALID,116,VALID,0,
2000-06-27, 02:31:00,VALID,915.852,VALID,0,VALID,95.9744,VALID,0,VALID,19.0485,VALID,116,VALID,0,
2000-06-27, 02:32:00,VALID,915.841,VALID,0,VALID,95.8624,VALID,0.0169808,VALID,19.0651,VALID,120,VALID,0,
2000-06-27, 02:33:00,VALID,915.853,VALID,0,VALID,95.5458,VALID,0,VALID,19.0489,VALID,120,VALID,0,
2000-06-27, 02:34:00,VALID,915.848,VALID,0,VALID,95.8319,VALID,0,VALID,19.0686,VALID,120,VALID,0,
2000-06-27, 02:35:00,VALID,915.86,VALID,0,VALID,95.837,VALID,0,VALID,19.078,VALID,120,VALID,0,
2000-06-27, 02:36:00,VALID,915.837,VALID,0,VALID,95.35,VALID,0,VALID,19.0688,VALID,120,VALID,0,
2000-06-27, 02:37:00,VALID,915.829,VALID,0,VALID,95.219,VALID,-0.0339617,VALID,19.0393,VALID,120,VALID,0,
2000-06-27, 02:38:00,VALID,915.833,VALID,0,VALID,95.6743,VALID,-0.0169808,VALID,19.039,VALID,120,VALID,0,
2000-06-27, 02:39:00,VALID,915.839,VALID,0,VALID,96.0456,VALID,0,VALID,19.1043,VALID,120,VALID,0,
2000-06-27, 02:40:00,VALID,915.83,VALID,0,VALID,95.9273,VALID,0,VALID,19.1041,VALID,122,VALID,0,
2000-06-27, 02:41:00,VALID,915.813,VALID,0,VALID,95.7658,VALID,-0.0169808,VALID,19.1103,VALID,122,VALID,0,
2000-06-27, 02:42:00,VALID,915.816,VALID,0,VALID,95.6399,VALID,0,VALID,19.1039,VALID,122,VALID,0,
2000-06-27, 02:43:00,VALID,915.809,VALID,0,VALID,95.5344,VALID,0,VALID,19.0976,VALID,122,VALID,0,
2000-06-27, 02:44:00,VALID,915.799,VALID,0,VALID,95.7264,VALID,-0.0509425,VALID,19.1036,VALID,122,VALID,0,
2000-06-27, 02:45:00,VALID,915.784,VALID,0,VALID,95.5547,VALID,-0.0169808,VALID,19.0939,VALID,122,VALID,0,
2000-06-27, 02:46:00,VALID,915.772,VALID,0,VALID,95.0321,VALID,-0.0169808,VALID,19.0718,VALID,122,VALID,0,
2000-06-27, 02:47:00,VALID,915.757,VALID,0,VALID,95.3653,VALID,-0.0169808,VALID,19.072,VALID,122,VALID,0,
2000-06-27, 02:48:00,VALID,915.752,VALID,0,VALID,95.5585,VALID,-0.0509425,VALID,19.0716,VALID,122,VALID,0,
2000-06-27, 02:49:00,VALID,915.731,VALID,0,VALID,95.6692,VALID,-0.0169808,VALID,19.0619,VALID,122,VALID,0,
2000-06-27, 02:50:00,VALID,915.715,VALID,0,VALID,95.996,VALID,0,VALID,19.0748,VALID,122,VALID,0,
2000-06-27, 02:51:00,VALID,915.696,VALID,0,VALID,96.2681,VALID,0,VALID,19.0847,VALID,122,VALID,0,
2000-06-27, 02:52:00,VALID,915.676,VALID,0,VALID,96.4258,VALID,0,VALID,19.1108,VALID,128,VALID,0,
2000-06-27, 02:53:00,VALID,915.664,VALID,0,VALID,96.4131,VALID,-0.0339617,VALID,19.1267,VALID,147,VALID,0,
2000-06-27, 02:54:00,VALID,915.648,VALID,0,VALID,95.9667,VALID,0,VALID,19.114,VALID,152,VALID,0,
2000-06-27, 02:55:00,VALID,915.643,VALID,0,VALID,95.5395,VALID,0,VALID,19.0877,VALID,153,VALID,0,
2000-06-27, 02:56:00,VALID,915.641,VALID,0,VALID,95.7073,VALID,0,VALID,19.072,VALID,153,VALID,0,
2000-06-27, 02:57:00,VALID,915.629,VALID,0,VALID,95.5,VALID,-0.0169808,VALID,19.0333,VALID,153,VALID,0,
2000-06-27, 02:58:00,VALID,915.645,VALID,0,VALID,95.4365,VALID,0,VALID,18.9784,VALID,153,VALID,0,
2000-06-27, 02:59:00,VALID,915.636,VALID,0,VALID,95.4937,VALID,-0.0169808,VALID,18.9329,VALID,152,VALID,0,
2000-06-27, 03:00:00,VALID,915.648,VALID,0,VALID,94.8604,VALID,-0.0169808,VALID,18.8586,VALID,148,VALID,0,
2000-06-27, 03:01:00,VALID,915.661,VALID,0,VALID,95.2775,VALID,-0.0169808,VALID,18.8035,VALID,125,VALID,0,
2000-06-27, 03:02:00,VALID,915.661,VALID,0,VALID,95.6755,VALID,0,VALID,18.7809,VALID,123,VALID,0,
2000-06-27, 03:03:00,VALID,915.661,VALID,0,VALID,95.6221,VALID,0,VALID,18.7324,VALID,117,VALID,0,
2000-06-27, 03:04:00,VALID,915.666,VALID,0,VALID,95.8027,VALID,0,VALID,18.678,VALID,113,VALID,0,
2000-06-27, 03:05:00,VALID,915.652,VALID,0,VALID,96.3635,VALID,-0.0679233,VALID,18.6748,VALID,110,VALID,0,
2000-06-27, 03:06:00,VALID,915.644,VALID,0,VALID,96.4029,VALID,0,VALID,18.6328,VALID,110,VALID,0,
2000-06-27, 03:07:00,VALID,915.636,VALID,0,VALID,96.7958,VALID,-0.0169808,VALID,18.6547,VALID,110,VALID,0,
2000-06-27, 03:08:00,VALID,915.622,VALID,0,VALID,97.0908,VALID,0,VALID,18.687,VALID,111,VALID,0,
2000-06-27, 03:09:00,VALID,915.622,VALID,0,VALID,97.3515,VALID,0,VALID,18.7225,VALID,99,VALID,0,
2000-06-27, 03:10:00,VALID,915.622,VALID,0,VALID,97.2701,VALID,-0.0339617,VALID,18.7587,VALID,106,VALID,0.161241,
2000-06-27, 03:11:00,VALID,915.622,VALID,0,VALID,97.1697,VALID,-0.0339617,VALID,18.7652,VALID,106,VALID,0.396544,
2000-06-27, 03:12:00,VALID,915.594,VALID,0,VALID,97.0463,VALID,0,VALID,18.755,VALID,106,VALID,0.11287,
2000-06-27, 03:13:00,VALID,915.587,VALID,0,VALID,96.937,VALID,0,VALID,18.7679,VALID,106,VALID,0,
2000-06-27, 03:14:00,VALID,915.558,VALID,0,VALID,96.8123,VALID,-0.0169808,VALID,18.7578,VALID,106,VALID,0,
2000-06-27, 03:15:00,VALID,915.523,VALID,0,VALID,96.937,VALID,-0.0169808,VALID,18.7908,VALID,106,VALID,0,
2000-06-27, 03:16:00,VALID,915.501,VALID,0,VALID,96.9827,VALID,0,VALID,18.8229,VALID,106,VALID,0,
2000-06-27, 03:17:00,VALID,915.475,VALID,0,VALID,96.9904,VALID,0,VALID,18.8422,VALID,106,VALID,0,
2000-06-27, 03:18:00,VALID,915.454,VALID,0,VALID,97.0489,VALID,-0.0509425,VALID,18.8581,VALID,106,VALID,0,
2000-06-27, 03:19:00,VALID,915.431,VALID,0,VALID,96.9179,VALID,-0.0339617,VALID,18.8653,VALID,106,VALID,0,
2000-06-27, 03:20:00,VALID,915.425,VALID,0,VALID,96.7729,VALID,-0.0339617,VALID,18.8524,VALID,106,VALID,0,
2000-06-27, 03:21:00,VALID,915.417,VALID,0,VALID,96.7093,VALID,-0.0339617,VALID,18.8266,VALID,106,VALID,0,
2000-06-27, 03:22:00,VALID,915.409,VALID,0,VALID,96.6826,VALID,0,VALID,18.8005,VALID,127,VALID,0,
2000-06-27, 03:23:00,VALID,915.4,VALID,0,VALID,96.6127,VALID,-0.0169808,VALID,18.788,VALID,137,VALID,0.0553768,
2000-06-27, 03:24:00,VALID,915.395,VALID,0,VALID,96.3622,VALID,-0.0339617,VALID,18.713,VALID,132,VALID,0.77027,
2000-06-27, 03:25:00,VALID,915.41,VALID,0,VALID,96.5084,VALID,-0.0339617,VALID,18.6874,VALID,125,VALID,0.690245,
2000-06-27, 03:26:00,VALID,915.413,VALID,0,VALID,96.5644,VALID,-0.0509425,VALID,18.6614,VALID,124,VALID,0.374268,
2000-06-27, 03:27:00,VALID,915.43,VALID,0,VALID,96.4461,VALID,-0.0679233,VALID,18.6455,VALID,124,VALID,0,
2000-06-27, 03:28:00,VALID,915.446,VALID,0,VALID,96.6419,VALID,0,VALID,18.6455,VALID,124,VALID,0,
2000-06-27, 03:29:00,VALID,915.452,VALID,0,VALID,96.5517,VALID,-0.0849042,VALID,18.6261,VALID,124,VALID,0,
2000-06-27, 03:30:00,VALID,915.472,VALID,0,VALID,96.7627,VALID,-0.101885,VALID,18.6263,VALID,124,VALID,0,
2000-06-27, 03:31:00,VALID,915.484,VALID,0,VALID,96.4817,VALID,-0.0849042,VALID,18.6007,VALID,128,VALID,0,
2000-06-27, 03:32:00,VALID,915.507,VALID,0,VALID,96.7869,VALID,-0.0509425,VALID,18.5613,VALID,158,VALID,0.0528493,
2000-06-27, 03:33:00,VALID,915.523,VALID,0,VALID,97.1404,VALID,-0.0169808,VALID,18.5652,VALID,170,VALID,0,
2000-06-27, 03:34:00,VALID,915.532,VALID,0,VALID,97.485,VALID,-0.0339617,VALID,18.6009,VALID,178,VALID,0,
2000-06-27, 03:35:00,VALID,915.527,VALID,0,VALID,97.4634,VALID,-0.0509425,VALID,18.5714,VALID,208,VALID,0,
2000-06-27, 03:36:00,VALID,915.526,VALID,0,VALID,97.2701,VALID,-0.0169808,VALID,18.5297,VALID,223,VALID,0,
2000-06-27, 03:37:00,VALID,915.52,VALID,0,VALID,97.1264,VALID,-0.0169808,VALID,18.4745,VALID,241,VALID,0.157552,
2000-06-27, 03:38:00,VALID,915.504,VALID,0,VALID,97.2116,VALID,-0.0679233,VALID,18.4457,VALID,227,VALID,0.642045,
2000-06-27, 03:39:00,VALID,915.492,VALID,0,VALID,97.335,VALID,-0.0169808,VALID,18.4422,VALID,224,VALID,0.677837,
2000-06-27, 03:40:00,VALID,915.466,VALID,0,VALID,97.457,VALID,-0.0509425,VALID,18.4295,VALID,221,VALID,0.606027,
2000-06-27, 03:41:00,VALID,915.462,VALID,0,VALID,97.6554,VALID,-0.0339617,VALID,18.4258,VALID,213,VALID,0.743336,
2000-06-27, 03:42:00,VALID,915.441,VALID,0,VALID,97.6681,VALID,-0.0339617,VALID,18.4561,VALID,205,VALID,0.678843,
2000-06-27, 03:43:00,VALID,915.444,VALID,0,VALID,97.7533,VALID,-0.0849042,VALID,18.4325,VALID,197,VALID,0.756546,
2000-06-27, 03:44:00,VALID,915.449,VALID,0,VALID,97.911,VALID,-0.0169808,VALID,18.4263,VALID,188,VALID,0.845947,
2000-06-27, 03:45:00,VALID,915.461,VALID,0,VALID,98.056,VALID,-0.0339617,VALID,18.4427,VALID,190,VALID,0.955729,